Powrót do katalogu

DELTA 1 DEB

AktywnySSO
NORAD 12193·DEBRIS·🇺🇸 United States

Wystrzelony Mar 5, 1978 z Vandenberg Space Force Base

Loading…

Następne Przeloty (najbliższe 24 godziny)

TLE

ŚwieżeSource: Space-Track

Epoka: Sep 13, 2026, 22:32 UTC

1 12193U 78026AJ  26256.93948336  .00000988  00000-0  69388-3 0  9997
2 12193  98.8464  85.8388 0234887 315.7191  42.5384 13.88106714263394

Śledź DELTA 1 DEB w czasie rzeczywistym z AllMySat

Download on the App Store